Retour au catalogue

STARLINK-34583

ActifCommunicationsVLEO
NORAD 64713·PAYLOAD·🇺🇸 United States

Lancé Jun 28, 2025 depuis Vandenberg Space Force Base

Loading…

Prochains Passages (prochaines 24 heures)

TLE

FraisSource: CelesTrak SupGP

Époque: Sep 15, 2026, 03:28 UTC

1 64713C 25142T   26258.14493056  .00035786  00000+0  12454-2 0  2584
2 64713  70.0009 194.8883 0003037 272.9689 166.0683 15.29547154    10

Suivez STARLINK-34583 en temps réel avec AllMySat

Download on the App Store